sat.trackr.live / text

‹ back to catalog

INSAT-3DS

NORAD 58990 · 2024-033A

PAYLOAD ACTIVE UNKNOWN

§ Identity

Operator
Country
IND
Launch date
2024-02-17
Launch site
SRILR
Launch vehicle
Mass (kg)
RCS (m²)

Purposes: comms, earth_obs

External: N2YO · Heavens-Above · Gunter

§ Orbital elements

Epoch: 2026-09-19T21:10:24.686688Z

Period
1,436.08 min
Inclination
0.0200°
Eccentricity
0.0001324
Mean motion
1.00273016 rev/d
Perigee alt
35,780.7 km
Apogee alt
35,791.8 km
Semi-major
42,164.4 km
B*
0.0000e+0
RAAN
232.0131°
Arg perigee
304.9325°
Mean anomaly
221.5368°
Rev number
4,801

§ Raw data

INSAT-3DS1 58990U 24033A   26262.88223017 -.00000161  00000+0  00000+0 0  99992 58990   0.0200 232.0131 0001324 304.9325 221.5368  1.00273016 48013

JSON: /api/v1/satellites/58990 · /tle

For live sub-satellite position, see the globe view (requires WebGL).

§ Visibility from observer

Set your observer location to see the next 7 days of passes ≥ 10°. The values pass through the URL so the page stays shareable.

No JS? Fill the form by hand. The geolocation button needs JavaScript.